Kapolei, HI

1:36 PM HST on February 25, 2017 (GMT -1000)
Kalaeloa (John Rodgers Field)

Weather History for PHJR - January, 2013

Change the Weather History Date:

Thursday, January 17, 2013

  Actual Average (PHNL) Record (PHNL)
Temperature  
Mean Temperature 70 °F -  
Max Temperature 79 °F 79 °F 85 °F (1996)
Min Temperature 61 °F 66 °F 57 °F (2003)
Cooling Degree Days 5    
Growing Degree Days 20 (Base 50)    
Moisture  
Dew Point 58 °F    
Average Humidity 67    
Maximum Humidity 87    
Minimum Humidity 46    
Precipitation  
Precipitation 0.00 in - - ()
Sea Level Pressure  
Sea Level Pressure 29.92 in    
Wind  
Wind Speed 4 mph (WNW)    
Max Wind Speed 17 mph    
Max Gust Speed -    
Visibility 10 miles    
Events      
Averages and records for this station are not official NWS values.
T = Trace of Precipitation, MM = Missing Value Source: NWS Daily Summary

Daily Weather History Graph

Daily Weather History Graph

Search for Another Location

Airport or City:

Trip Planner

Search our weather history database for the weather conditions in past years. The results will help you decide how hot, cold, wet, or windy it might be!

Date:

Astronomy

Jan. 17, 2013 Rise Set
Actual Time 7:12 AM HST 6:12 PM HST
Civil Twilight 6:48 AM HST 6:36 PM HST
Nautical Twilight 6:21 AM HST 7:03 PM HST
Astronomical Twilight 5:54 AM HST 7:30 PM HST
Moon 11:20 AM HST (1/17) No Moon Set
Length of Visible Light 11h 48m
Length of Day
11h 00m
Waxing Crescent, 39% of the Moon is Illuminated
Jan 17
Waxing Crescent
Jan 18
First Quarter
Jan 26
Full
Feb 3
Last Quarter
Feb 9
New

Hourly Weather History & Observations

Time (HST) Temp. Dew Point Humidity Pressure Visibility Wind Dir Wind Speed Gust Speed Precip Events Conditions
12:53 AM 66.9 °F 61.0 °F 81% 29.93 in - Variable 3.5 mph - N/A   Clear
1:53 AM 68.0 °F 61.0 °F 78% 29.92 in - NNE 3.5 mph - N/A   Clear
2:53 AM 66.0 °F 61.0 °F 84% 29.91 in - Variable 3.5 mph - N/A   Clear
3:53 AM 64.0 °F 57.9 °F 80% 29.90 in - Calm Calm - N/A   Clear
4:53 AM 63.0 °F 57.9 °F 84% 29.90 in - Calm Calm - N/A   Clear
5:53 AM 62.1 °F 57.0 °F 84% 29.90 in 10.0 mi Variable 3.5 mph - N/A   Clear
6:53 AM 61.0 °F 57.0 °F 87% 29.92 in - Calm Calm - N/A   Clear
7:53 AM 63.0 °F 57.9 °F 84% 29.94 in - Calm Calm - N/A   Clear
8:53 AM 72.0 °F 61.0 °F 68% 29.95 in - Calm Calm - N/A   Clear
9:53 AM 75.0 °F 59.0 °F 57% 29.96 in - Calm Calm - N/A   Clear
10:53 AM 75.0 °F 60.1 °F 60% 29.95 in - SSW 6.9 mph - N/A   Clear
11:24 AM 75.2 °F 60.8 °F 61% 29.92 in - SW 8.1 mph - N/A   Partly Cloudy
11:53 AM 77.0 °F 60.1 °F 56% 29.92 in 10.0 mi SW 8.1 mph - N/A   Clear
12:53 PM 79.0 °F 57.0 °F 47% 29.89 in 10.0 mi West 13.8 mph - N/A   Partly Cloudy
1:53 PM 78.1 °F 57.0 °F 48% 29.87 in 10.0 mi WNW 17.3 mph - N/A   Clear
2:53 PM 78.1 °F 55.9 °F 46% 29.86 in 10.0 mi WNW 17.3 mph - N/A   Clear
3:53 PM 77.0 °F 55.0 °F 47% 29.87 in 10.0 mi WNW 13.8 mph - N/A   Clear
4:53 PM 75.0 °F 57.0 °F 53% 29.88 in 10.0 mi WNW 11.5 mph - N/A   Clear
5:53 PM 73.9 °F 55.0 °F 52% 29.90 in 10.0 mi WNW 8.1 mph - N/A   Clear
6:53 PM 69.1 °F 57.0 °F 65% 29.92 in 10.0 mi East 3.5 mph - N/A   Partly Cloudy
7:53 PM 69.1 °F 57.0 °F 65% 29.94 in 10.0 mi ENE 3.5 mph - N/A   Partly Cloudy
8:53 PM 66.9 °F 57.0 °F 70% 29.95 in - Calm Calm - N/A   Clear
9:26 PM 66.2 °F 57.2 °F 73% 29.93 in - Calm Calm - N/A   Partly Cloudy
9:53 PM 66.0 °F 57.0 °F 73% 29.95 in - Calm Calm - N/A   Clear
10:53 PM 64.9 °F 57.0 °F 75% 29.95 in - Variable 3.5 mph - N/A   Clear
11:53 PM 66.0 °F 57.9 °F 75% 29.94 in - Calm Calm - N/A   Clear